x

8419317 - Wells, Me (welm1) Weather Station

7:18 - Thu 22nd Jun 2017 All times are EDT. -4 hours from GMT.

  • Wind
    6mph, 8mph gusts
  • Sea Temp 49°f
  • Luft Temp 66°f
  • Sea Pressure 1013.9mb
  • 8419317 - Wells, Me
  • 8419317 - Wells, Me

More Historic Weather Station data

Upgrade to MSW Pro to gain access to the past 30 days of data for over 8000 Wavebouys and Weather Stations around the globe.

Join Pro

Comparision Forecast

View Surf forecast
   
Do 06/22 7:18 6 8 mph 1013.9mb 49f 66f
7:12 6 11 mph 1014mb 49f 65f
7:06 6 10 mph 1014mb 49f 65f
7:00 6 10 mph 1014mb 49f 64f
6:54 7 9 mph 1014mb 49f 63f
6:48 6 8 mph 1013.8mb 50f 63f
6:42 6 10 mph 1013.8mb 51f 63f
6:36 8 11 mph 1013.6mb 51f 63f
6:30 9 11 mph 1013.6mb 52f 63f
6:24 7 10 mph 1013.5mb 53f 62f
6:18 7 8 mph 1013.5mb 53f 62f
6:12 6 9 mph 1013.5mb 54f 62f
6:06 7 10 mph 1013.5mb 54f 62f
6:00 7 11 mph 1013.5mb 54f 61f
5:54 7 10 mph 1013.5mb 54f 61f
5:48 6 9 mph 1013.4mb 54f 60f
5:42 7 10 mph 1013.3mb 54f 60f
5:36 7 9 mph 1013.2mb 54f 60f
5:30 6 11 mph 1013.2mb 54f 60f
5:24 7 10 mph 1013.2mb 54f 60f
5:18 6 8 mph 1013.2mb 53f 60f
5:12 7 10 mph 1013.1mb 53f 61f
5:06 8 11 mph 1013.1mb 53f 61f
5:00 7 9 mph 1012.9mb 53f 61f
4:54 6 9 mph 1012.9mb 52f 61f
4:48 7 10 mph 1012.8mb 52f 61f
4:42 7 9 mph 1012.7mb 52f 60f
4:36 6 9 mph 1012.8mb 52f 60f
4:30 7 10 mph 1012.8mb 52f 60f
4:24 6 8 mph 1012.8mb 52f 60f
4:18 6 7 mph 1012.7mb 52f 60f
4:12 5 7 mph 1012.7mb 51f 61f
4:06 5 7 mph 1012.7mb 51f 61f
4:00 6 7 mph 1012.6mb 51f 61f
3:54 6 8 mph 1012.6mb 51f 62f
3:48 7 11 mph 1012.6mb 51f 62f
3:42 9 13 mph 1012.6mb 51f 62f
3:36 9 14 mph 1012.5mb 51f 62f
3:30 9 14 mph 1012.5mb 51f 62f
3:24 8 13 mph 1012.5mb 51f 61f
3:18 9 11 mph 1012.3mb 51f 61f
3:12 8 11 mph 1012.4mb 51f 61f
3:06 8 10 mph 1012.4mb 51f 61f
3:00 8 10 mph 1012.4mb 51f 61f
2:54 7 10 mph 1012.4mb 51f 61f
2:48 8 10 mph 1012.4mb - -
2:42 7 10 mph 1012.3mb - -
2:36 8 10 mph 1012.3mb - -
2:30 8 9 mph 1012.4mb 50f 62f
2:24 8 9 mph 1012.4mb 50f 62f
2:18 7 10 mph 1012.4mb 50f 62f
2:12 8 10 mph 1012.4mb 50f 63f
2:06 7 9 mph 1012.4mb 50f 63f
2:00 7 8 mph 1012.4mb 50f 63f
1:54 5 7 mph 1012.4mb 50f 63f
1:48 6 8 mph 1012.4mb 50f -
1:42 6 8 mph 1012.5mb 50f -
1:36 5 7 mph 1012.4mb 49f -
1:30 6 8 mph 1012.3mb 49f 64f
1:24 6 8 mph 1012.2mb 49f 64f
1:18 7 8 mph 1012.3mb 49f 64f
1:12 6 9 mph 1012.2mb 49f 64f
1:06 6 8 mph 1012.2mb 49f 64f
1:00 5 9 mph 1012.2mb 49f 64f
12:54 5 8 mph 1012.1mb 49f 65f
12:48 6 10 mph 1012.1mb 50f 65f
12:42 6 8 mph 1012.1mb 50f 65f
12:36 6 9 mph 1012.2mb 49f 65f
12:30 6 9 mph 1012.1mb 49f 65f
12:24 6 8 mph 1012.1mb 49f 65f
12:18 7 9 mph 1012mb 49f 66f
12:12 6 9 mph 1012mb 49f 66f
12:06 8 10 mph 1012mb 49f 66f
12:00 6 8 mph 1012mb 49f 66f
Mi 06/21 11:54 6 10 mph 1012mb 48f 66f
11:48 6 8 mph 1011.9mb 48f 66f
11:42 6 10 mph 1011.9mb 48f 66f
11:36 3 9 mph 1011.8mb 48f 66f
11:30 6 8 mph 1011.8mb 48f 67f
11:24 6 10 mph 1011.6mb 47f 67f
11:18 7 13 mph 1011.6mb 48f 66f
11:12 7 11 mph 1011.4mb 48f 66f
11:06 6 9 mph 1011.4mb 47f 66f
11:00 6 8 mph 1011.4mb 47f 66f
10:54 6 7 mph 1011.3mb 47f 66f
10:48 6 8 mph 1011.4mb 47f 67f
10:42 6 7 mph 1011.3mb 47f 67f
10:36 5 7 mph 1011.3mb 47f 66f
10:30 6 7 mph 1011.2mb 47f 67f
10:24 6 7 mph 1011.3mb 47f 67f
10:18 6 7 mph 1011.3mb 47f 68f
10:12 5 7 mph 1011.3mb 47f 68f
10:06 6 8 mph 1011.4mb 47f 69f
10:00 6 8 mph 1011.4mb 47f 69f
9:54 6 9 mph 1011.4mb 47f 69f
9:48 6 7 mph 1011.4mb 47f 69f
9:42 5 7 mph 1011.3mb 47f 69f
9:36 5 7 mph 1011.2mb 47f 69f
9:30 5 7 mph 1011mb 47f 69f
9:24 3 6 mph 1011mb 47f 69f
9:18 5 6 mph 1010.9mb 47f 69f
9:12 5 6 mph 1010.8mb 47f 70f
9:06 5 6 mph 1010.6mb 47f 70f
9:00 5 7 mph 1010.6mb 47f 70f
8:54 6 7 mph 1010.5mb 47f 71f
8:48 5 6 mph 1010.3mb 47f 71f
8:42 5 7 mph 1010.2mb 47f 71f
8:36 5 7 mph 1010.1mb 47f 72f
8:30 5 6 mph 1010.1mb 47f 72f
8:24 5 7 mph 1010.1mb 47f 73f
8:18 6 8 mph 1010.1mb 47f 73f
8:12 5 7 mph 1010.1mb 47f 74f
8:06 3 9 mph 1010mb 47f 74f
8:00 5 8 mph 1010mb 47f 75f
7:48 5 9 mph 1009.9mb 47f 76f
7:42 6 9 mph 1009.9mb 47f 76f
7:36 7 10 mph 1009.9mb 47f 76f
7:30 8 11 mph 1009.8mb 47f 76f
7:24 9 14 mph 1009.9mb 47f 76f
7:18 7 10 mph 1009.8mb 47f 76f
7:12 9 13 mph 1009.8mb 47f 77f
7:06 8 13 mph 1009.8mb 47f 77f
7:00 8 13 mph 1009.8mb 47f 77f
6:48 10 16 mph 1009.5mb 47f 76f
6:42 10 16 mph 1009.4mb 48f 77f
6:36 10 16 mph 1009.4mb 48f 78f
6:30 11 18 mph 1009.3mb 48f 77f
6:24 8 13 mph 1009.3mb 48f 78f
6:18 7 15 mph 1009.3mb 48f 78f
6:12 11 17 mph 1009.2mb 48f 77f
6:06 11 18 mph 1009.2mb 48f 78f
6:00 7 16 mph 1009mb 48f 78f
5:54 11 17 mph 1009mb 49f 78f
5:48 14 23 mph 1008.9mb 51f 78f
5:42 10 20 mph 1008.8mb 52f 78f
5:36 10 18 mph 1008.8mb 52f 78f
5:30 8 18 mph 1008.7mb 53f 78f
5:24 11 16 mph 1008.7mb 53f 78f
5:18 15 22 mph 1008.8mb 55f 78f
5:12 11 22 mph 1008.7mb 57f 78f
5:06 14 20 mph 1008.7mb 58f 78f
5:00 9 20 mph 1008.6mb 58f 79f
4:54 11 22 mph 1008.5mb 58f 79f
4:48 14 20 mph 1008.5mb 58f 78f
4:42 17 24 mph 1008.4mb 58f 78f
4:36 10 17 mph 1008.5mb 58f 78f
4:30 14 21 mph 1008.4mb 58f 78f
4:24 13 20 mph 1008.4mb 58f 79f
4:18 15 24 mph 1008.3mb 58f 79f
4:12 9 18 mph 1008.3mb 57f 79f
4:06 11 22 mph 1008.4mb 56f 79f
4:00 11 20 mph 1008.3mb 56f 79f
3:54 9 17 mph 1008.3mb 56f 80f
3:48 14 21 mph 1008.3mb 55f 79f
3:42 14 18 mph 1008.3mb 55f 78f
3:36 14 23 mph 1008.3mb 55f 78f
3:30 10 20 mph 1008.4mb 55f 80f
3:24 11 20 mph 1008.4mb 55f 80f
3:18 9 17 mph 1008.4mb 55f 79f
3:12 8 23 mph 1008.5mb 55f 80f
3:06 7 16 mph 1008.4mb 55f 79f
3:00 6 15 mph 1008.4mb 55f 80f
2:54 14 20 mph 1008.5mb 55f 79f
2:48 11 18 mph 1008.5mb 54f 79f
2:42 11 23 mph 1008.4mb 54f 78f
2:36 13 20 mph 1008.6mb 54f 79f
2:30 13 20 mph 1008.5mb 54f 78f
2:24 13 20 mph 1008.5mb 54f 78f
2:18 10 20 mph 1008.5mb 54f 78f
2:12 11 18 mph 1008.6mb 54f 78f
2:06 10 17 mph 1008.5mb 54f 78f
2:00 16 23 mph 1008.5mb 54f 79f
1:54 17 22 mph 1008.6mb 55f 78f
1:48 13 20 mph - 54f -
1:42 13 17 mph - 54f -
1:36 14 22 mph - 54f -
1:30 10 17 mph 1008.6mb 53f 79f
1:24 14 20 mph 1008.6mb 53f 78f
1:18 9 21 mph 1008.7mb 53f 78f
1:12 14 20 mph 1008.8mb 52f 78f
1:06 11 20 mph 1008.8mb 52f 79f
1:00 10 17 mph 1008.8mb 52f 80f
12:54 7 20 mph 1008.8mb 51f 79f
12:48 10 22 mph 1008.9mb 51f 79f
12:42 10 22 mph 1008.9mb 51f 79f
12:36 14 21 mph 1009mb 51f 79f
12:30 14 22 mph 1009.1mb 51f 78f
12:24 14 23 mph 1009.2mb 51f 78f
12:18 10 18 mph 1009.2mb 52f 78f
12:12 10 15 mph 1009.2mb 53f 78f
12:06 8 16 mph 1009.2mb 53f 78f
12:00 14 22 mph 1009.4mb 52f 78f
11:54 9 17 mph 1009.3mb 52f 78f
11:48 10 22 mph 1009.4mb 52f 78f
11:42 16 23 mph 1009.5mb 52f 78f
11:36 15 23 mph 1009.5mb 51f 77f
11:30 14 22 mph 1009.5mb 51f 78f
11:24 8 20 mph 1009.4mb 51f 78f
11:18 13 21 mph 1009.5mb 51f 78f
11:12 14 24 mph 1009.6mb 51f 77f
11:06 15 23 mph 1009.7mb 50f 77f
11:00 9 18 mph 1009.7mb 50f 77f
10:54 10 16 mph 1009.7mb 50f 77f
10:48 10 17 mph 1009.8mb 50f 77f
10:42 10 15 mph 1009.9mb 50f 76f
10:36 7 13 mph 1009.9mb 50f 72f
10:30 11 16 mph 1010mb 50f 67f
10:24 9 13 mph 1010.1mb 50f -
10:18 11 13 mph 1010.1mb 50f -
10:12 9 10 mph 1010.1mb 50f -
10:06 7 11 mph 1010.1mb 50f 75f
10:00 5 11 mph 1010.1mb 50f 75f
9:54 7 10 mph 1010.2mb 50f 75f
9:48 7 9 mph 1010.2mb 50f 74f
9:42 6 10 mph 1010.2mb 50f 74f
9:36 6 9 mph 1010.2mb 50f 73f
9:30 7 11 mph 1010.3mb 50f 73f
9:24 6 10 mph 1010.5mb 50f 73f
9:18 7 10 mph 1010.6mb 49f 73f
9:12 3 9 mph 1010.7mb 49f 74f
9:06 8 11 mph 1010.8mb 49f 73f
9:00 6 9 mph 1010.8mb 49f 72f
8:54 7 9 mph 1010.9mb 49f 73f
8:48 7 11 mph 1011.1mb 49f 72f
8:42 5 10 mph 1011.1mb 49f 72f
8:36 6 10 mph 1011.1mb 49f 72f
8:30 7 10 mph 1011.1mb 49f 72f
8:24 6 9 mph 1011.3mb 49f 71f
8:18 6 9 mph 1011.2mb 49f 71f
8:12 8 11 mph 1011.2mb 49f 71f
8:06 3 6 mph 1011.2mb 49f 70f
8:00 6 8 mph 1011.2mb 49f 70f
7:54 5 9 mph 1011.4mb 49f 69f
7:48 7 10 mph 1011.4mb 49f 69f
7:42 6 9 mph 1011.4mb 49f 69f
7:36 7 11 mph 1011.5mb 49f 68f
7:30 6 11 mph 1011.5mb 49f 68f
7:24 5 9 mph 1011.6mb 49f 68f
7:18 6 10 mph 1011.7mb 49f 68f
7:12 6 11 mph 1011.5mb 49f 68f
7:06 6 10 mph 1011.5mb 49f 68f
7:00 5 8 mph 1011.6mb 49f 68f
6:54 5 10 mph 1011.6mb 49f 67f
6:48 6 9 mph 1011.8mb 49f 67f
6:42 5 8 mph 1011.8mb 49f 66f
6:36 3 6 mph 1011.7mb 49f 65f
6:30  -  2 mph 1011.8mb 49f 62f
6:24  -  2 mph 1011.8mb 49f 63f
6:18 1 3 mph 1011.7mb 49f 62f
6:12 2 6 mph 1011.6mb 49f 62f
6:06 3 5 mph 1011.5mb 49f 61f
6:00 5 6 mph 1011.4mb 50f 62f
5:54 5 5 mph 1011.4mb 50f 62f
5:48 2 3 mph 1011.6mb 51f 61f
5:42 3 3 mph 1011.6mb 52f 61f
5:36 2 2 mph 1011.4mb 53f 60f
5:30  -  0 mph 1011.5mb 54f 60f
5:24  -  1 mph 1011.6mb 55f 60f
5:18 1 2 mph 1011.6mb 56f 60f
5:12 1 5 mph 1011.6mb 56f 60f
5:06 3 5 mph 1011.5mb 56f 61f
5:00 3 3 mph 1011.4mb 56f 61f
4:54 2 3 mph 1011.5mb 56f 61f
4:48 2 3 mph 1011.5mb 56f 61f
4:42 2 5 mph 1011.4mb 56f 61f
4:36 3 5 mph 1011.4mb 56f 61f
4:30 3 3 mph 1011.4mb 56f 61f
4:24 3 3 mph 1011.3mb 56f 61f
4:18 3 3 mph 1011.4mb 56f 61f
4:12 2 5 mph 1011.4mb 56f 60f
4:06 5 6 mph 1011.3mb 56f 61f
4:00 3 3 mph 1011.4mb 56f 60f
3:54 3 5 mph 1011.4mb 55f 59f
3:48  -  3 mph 1011.4mb 55f 58f
3:42 2 3 mph 1011.3mb 54f 59f
3:36 3 5 mph 1011.3mb 54f 59f
3:30 5 6 mph 1011.3mb 54f 60f
3:24 2 6 mph 1011.4mb 54f 58f
3:18 6 7 mph 1011.5mb 54f 58f
3:12 6 7 mph 1011.6mb 54f 58f
3:06 3 6 mph 1011.5mb 54f 60f
3:00 3 5 mph 1011.6mb 54f 58f
2:54 6 10 mph 1011.6mb 54f 58f
2:48 7 10 mph 1011.7mb 54f 59f
2:42 5 5 mph 1011.6mb 53f 61f
2:36 2 2 mph 1011.5mb 53f 62f
2:30  -  2 mph 1011.4mb 53f 63f
2:24 2 3 mph 1011.4mb 53f 64f
2:18 3 5 mph 1011.4mb 53f 64f
2:12 3 6 mph 1011.5mb 53f 64f
2:06 3 6 mph 1011.5mb 53f 64f
2:00 5 6 mph 1011.5mb 53f 64f
1:54 6 6 mph 1011.6mb 53f 64f
1:48 5 8 mph 1011.7mb 53f 64f
1:42 7 8 mph 1011.6mb 53f 65f
1:36 5 6 mph 1011.7mb 53f 65f
1:30 3 6 mph 1011.7mb 52f 65f
1:24 5 6 mph 1011.8mb 52f 65f
1:18 5 6 mph 1011.9mb 52f 64f
1:12 5 6 mph 1011.9mb 52f 64f
1:06 3 5 mph 1012mb 52f 63f
1:00 3 3 mph 1012.1mb 52f 64f
12:54 3 5 mph 1012.1mb 52f 63f
12:48 5 5 mph 1012.1mb 51f 63f
12:42 2 3 mph 1012.2mb 51f 62f
12:36 2 6 mph 1012.1mb 51f 64f
12:30 5 7 mph 1012.1mb 51f 66f
12:24 5 6 mph 1012mb 51f 66f
12:18 3 6 mph 1011.9mb 51f 66f
12:12 3 5 mph 1011.9mb 51f 66f
12:06 3 6 mph 1011.9mb 52f 66f
12:00 5 6 mph 1011.9mb 52f 67f
Di 06/20 11:54 5 7 mph 1011.8mb 52f 68f
11:48 5 6 mph 1011.7mb 52f 68f
11:42 5 7 mph 1011.7mb 52f 68f
11:36 3 7 mph 1011.8mb 51f 68f
11:30 6 9 mph 1011.9mb 51f 69f
11:24 6 9 mph 1011.9mb 51f 69f
11:18 7 9 mph 1011.8mb 51f 69f
11:12 7 10 mph 1011.7mb 51f 70f
11:06 7 9 mph 1011.8mb 50f 70f
11:00 6 9 mph 1011.8mb 50f 70f
10:54 6 9 mph 1011.8mb 50f 71f
10:48 5 8 mph 1011.7mb 50f 70f
10:42 5 7 mph 1011.6mb 50f 71f
10:36 6 9 mph 1011.5mb 50f 71f
10:30 5 7 mph 1011.5mb 49f 71f
10:24 6 10 mph 1011.5mb 49f 72f
10:18 7 11 mph 1011.6mb 49f 72f
10:12 8 13 mph 1011.5mb 49f 72f
10:06 8 13 mph 1011.5mb 49f 72f
10:00 8 13 mph 1011.4mb 49f 72f
9:54 7 14 mph 1011.3mb 49f 72f
9:48 8 13 mph 1011.2mb 49f 72f
9:42 7 10 mph 1011.2mb 49f 72f
9:36 5 8 mph 1011.2mb 49f 72f
9:30 5 8 mph 1011.2mb 49f 73f
9:24 5 7 mph 1011.1mb 49f 73f
9:18 6 8 mph 1011mb 49f 73f
9:12 6 9 mph 1010.9mb 49f 73f
9:06 7 10 mph 1010.9mb 49f 74f
9:00 6 9 mph 1010.9mb 49f 74f
8:54 6 10 mph 1010.9mb 49f 74f
8:48 5 6 mph 1010.9mb 49f 72f
8:42 5 6 mph 1010.9mb 49f 73f
8:36 2 3 mph 1010.7mb 49f 75f
8:30 2 6 mph 1010.7mb 49f 75f
8:24 3 7 mph 1010.6mb 49f 76f
8:18 5 7 mph 1010.5mb 49f 76f
8:12 5 9 mph 1010.5mb 49f 77f
8:06 5 10 mph 1010.4mb 48f 77f
8:00 7 10 mph 1010.3mb 48f 78f
7:54 6 10 mph 1010.3mb 49f 78f
7:48 6 11 mph 1010.2mb 49f 78f
7:42 9 14 mph 1010.1mb 49f 79f
7:36 8 16 mph 1010mb 49f 79f
7:30 9 14 mph 1009.9mb 49f 80f
7:24 7 13 mph 1009.8mb 49f 80f
7:00 6 10 mph 1009.4mb 49f 81f
6:54 5 10 mph 1009.3mb 49f 82f
6:48 10 14 mph 1009.3mb 49f 81f
6:42 7 10 mph 1009.1mb 49f 82f
6:36 6 11 mph 1009mb 49f 82f
6:30 8 17 mph 1008.9mb 49f 82f
6:24 7 15 mph 1008.8mb 49f 82f
6:18 10 18 mph 1008.7mb 49f 82f
6:12 8 16 mph 1008.6mb 49f 82f
6:06 11 20 mph 1008.5mb 49f 82f
6:00 10 18 mph 1008.3mb 49f 82f
5:54 10 16 mph 1008.2mb 50f 82f
5:48 7 16 mph 1008.2mb 50f 82f
5:42 7 15 mph 1008.1mb 50f 82f
5:36 11 17 mph 1008.1mb 50f 82f
5:30 10 15 mph 1008.1mb 50f 82f
5:24 10 23 mph 1008.1mb 50f 82f
5:18 11 17 mph 1008.2mb 50f 82f
5:12 15 24 mph 1008.2mb 51f 82f
5:06 17 26 mph 1008.2mb 51f 82f
5:00 10 18 mph 1008.2mb 52f 82f
4:54 8 18 mph 1008.2mb 53f 83f
4:48 11 20 mph 1008.2mb 54f 82f
4:42 10 16 mph 1008.2mb 55f 83f
4:36 10 18 mph 1008.2mb 58f 82f
4:30 10 17 mph 1008.2mb 58f 82f
4:24 13 20 mph 1008.2mb 59f 82f
4:18 11 20 mph 1008.1mb 59f 77f
4:12 13 18 mph 1008.1mb 59f 70f
4:06 16 20 mph 1008.1mb 59f 68f
4:00 15 17 mph 1008.2mb 59f 68f
3:54 13 16 mph 1008.1mb 59f 67f
3:48 14 17 mph 1008.1mb 59f 67f
3:42 14 17 mph 1008.1mb 59f 67f
3:36 16 22 mph 1008.2mb 59f 65f
3:30 17 20 mph 1008.1mb 59f 65f
3:24 15 20 mph 1008.2mb 59f 66f
3:18 16 21 mph 1008.2mb 59f 66f
3:12 16 20 mph 1008.1mb 57f 68f
3:06 16 20 mph 1008.2mb 57f 67f
3:00 9 10 mph 1008mb 57f 70f
2:54 10 13 mph 1008.1mb 57f 69f
2:48 9 11 mph 1008.2mb 56f 71f
2:42 10 13 mph 1008.3mb 56f 69f
2:36 9 11 mph 1008.4mb 56f 67f
2:30 8 14 mph 1008.5mb 56f 66f
2:24 11 14 mph 1008.6mb 56f 66f
2:18 10 13 mph 1008.5mb 56f 67f
2:12 6 9 mph 1008.4mb 56f 71f
2:06 7 11 mph 1008.4mb 56f 71f
2:00 7 9 mph 1008.3mb 56f 71f
1:54 7 10 mph 1008.4mb 56f 71f
1:48 6 9 mph 1008.4mb 56f 70f
1:42 5 8 mph 1008.4mb 55f 69f
1:36 6 9 mph 1008.5mb 55f 67f
1:30 3 15 mph 1008.7mb 55f 67f
1:24 10 18 mph 1009.2mb 55f 67f
1:18 16 23 mph 1009.2mb 55f 67f
1:12 6 10 mph 1008.7mb 55f 66f
1:06 8 10 mph 1008.2mb 55f 66f
1:00 8 13 mph 1008.1mb 55f 67f
12:54 6 10 mph 1008.2mb 55f 68f
12:48 9 16 mph 1008.2mb 55f 67f
12:42 11 18 mph 1008.3mb 54f 67f
12:36 13 21 mph 1008.3mb 54f 69f
12:30 15 18 mph 1008.4mb 54f 67f
12:24 16 20 mph 1008.5mb 53f 64f
12:18 15 21 mph 1008.4mb 53f 64f
12:12 17 22 mph 1008.6mb 53f 63f
12:06 18 21 mph 1008.6mb 53f 62f
12:00 16 18 mph 1008.6mb 53f 64f
11:54 15 18 mph 1008.5mb 52f 65f
11:48 13 17 mph 1008.5mb 52f 72f
11:42 15 21 mph 1008.5mb 52f -
11:36 9 17 mph 1008.5mb 52f -
11:30 10 15 mph 1008.6mb 53f -
11:24 11 21 mph 1008.6mb 53f -
11:18 9 11 mph 1008.7mb 53f 64f
11:12 8 11 mph 1008.8mb 53f 64f
11:06 10 13 mph 1008.8mb 53f 62f
11:00 13 15 mph 1008.8mb 53f 60f
10:54 13 14 mph 1009mb 53f 59f
10:48 10 13 mph 1009mb 53f 59f
10:42 10 14 mph 1009.1mb 52f 59f
10:36 14 17 mph 1009.2mb 52f 59f
10:30 13 16 mph 1009.1mb 52f 59f
10:24 14 18 mph 1009.1mb 52f 59f
10:18 15 16 mph 1009.1mb 52f 59f
10:12 15 17 mph 1009.1mb 52f 59f
10:06 14 16 mph 1009.1mb 51f 60f
10:00 14 16 mph 1009.1mb 51f 61f
9:54 15 16 mph 1009.1mb 51f 60f
9:48 13 15 mph 1009mb 51f 61f
9:42 14 14 mph 1009mb 51f 59f
9:36 11 14 mph 1009mb 51f 60f
9:30 11 14 mph 1009.1mb 51f 61f
9:24 10 13 mph 1009.2mb 51f 64f
9:18 13 15 mph 1009.2mb 51f 65f
9:12 13 14 mph 1009.3mb 51f 64f
9:06 14 15 mph 1009.4mb 51f 61f
9:00 13 15 mph 1009.5mb 51f 60f
8:54 14 15 mph 1009.4mb 50f 60f
8:48 13 16 mph 1009.3mb 50f 59f
8:42 15 17 mph 1009.3mb 50f 59f
8:36 17 18 mph 1009.2mb 50f 57f
8:30 15 17 mph 1009.3mb 50f 58f
8:24 14 16 mph 1009.3mb 50f 59f
8:18 15 18 mph 1009.2mb 50f 58f
8:12 15 17 mph 1009.3mb 50f 58f
8:06 14 15 mph 1009.2mb 50f 59f
8:00 13 15 mph 1009.4mb 50f 58f
7:54 14 15 mph 1009.5mb 50f 59f
7:48 14 15 mph 1009.6mb 50f 58f
7:42 11 14 mph 1009.5mb 50f 58f
7:36 13 16 mph 1009.7mb 50f 57f
7:30 13 16 mph 1009.7mb 50f 57f
7:24 15 17 mph 1009.6mb 50f 58f
7:18 16 17 mph 1009.4mb 50f 57f
7:12 13 15 mph 1009.5mb 50f 56f
7:06 11 14 mph 1009.3mb 50f 56f
7:00 13 15 mph 1009.3mb 50f 57f
6:54 13 14 mph 1009.2mb 50f 56f
6:48 13 15 mph 1009.3mb 50f 56f
6:42 6 7 mph 1009.3mb 50f 59f
6:36 6 10 mph 1009.2mb 50f 57f
6:30 10 13 mph 1009.3mb 50f 57f
6:24 11 13 mph 1009.2mb 50f 57f
6:18 11 17 mph 1009mb 50f 58f
6:12 14 16 mph 1009.2mb 50f 58f
6:06 14 17 mph 1009.2mb 50f 57f
6:00 15 17 mph 1009mb 51f 58f
5:54 14 16 mph 1009.1mb 51f 58f
5:48 11 14 mph 1009.4mb 51f 58f
5:42 5 9 mph 1009.2mb 51f 59f
5:36 10 14 mph 1009.3mb 51f 59f
5:30 10 15 mph 1009.4mb 51f 58f
5:24 13 14 mph 1009.1mb 51f 57f
5:18 11 13 mph 1009.1mb 51f 58f
5:12 8 13 mph 1009mb 51f 57f
5:06 10 11 mph 1008.9mb 51f 58f
5:00 9 10 mph 1009mb 51f 59f
4:54 5 6 mph 1009.1mb 51f 60f
4:48 6 9 mph 1009mb 53f 59f
4:42 10 15 mph 1009.1mb 53f 60f
4:36 14 15 mph 1009.3mb 54f 59f
4:30 11 14 mph 1009.2mb 55f 60f
4:24 13 14 mph 1009.3mb 57f 61f
4:18 11 14 mph 1009.3mb 59f 61f
4:12 13 14 mph 1009.3mb 60f 62f
4:06 11 14 mph 1009.2mb 60f 62f
4:00 11 13 mph 1009.2mb 60f 62f
3:54 10 14 mph 1009.1mb 60f 61f
3:48 11 13 mph 1009mb 60f 60f
3:42 8 13 mph 1009.2mb 60f 60f
3:36 11 15 mph 1009.2mb 60f 59f
3:30 13 16 mph 1009.3mb 60f 58f
3:24 10 14 mph 1009.4mb 60f 61f
3:18 13 15 mph 1009.4mb 60f 59f
3:12 10 11 mph 1009.1mb 60f 60f
3:06 3 6 mph 1008.8mb 60f 62f
3:00  -  2 mph 1008.8mb 59f 62f
2:54  -  3 mph 1008.8mb 58f 62f
2:48 2 2 mph 1008.9mb - -
2:42 2 2 mph 1008.9mb - -
2:36  -  2 mph 1008.8mb - -
2:30 2 3 mph 1008.7mb 58f 62f
2:24  -  2 mph 1008.9mb 57f 62f
2:18 1 6 mph 1008.8mb 57f 63f
2:12 6 6 mph 1008.9mb 57f 62f
2:06 5 7 mph 1008.9mb 57f 61f
2:00 3 5 mph 1008.9mb 57f 62f
1:54  -  1 mph 1009mb 57f 61f
1:48 1 2 mph 1008.9mb 57f 61f
1:36 1 2 mph 1009mb 57f 61f
1:30 1 2 mph 1009.2mb 56f 61f
1:24 2 3 mph 1009.3mb 56f 60f
1:18 3 3 mph 1009.3mb 56f 60f
1:12  -  1 mph 1009.3mb 56f 61f
1:06  -  1 mph 1009.4mb 56f 60f
1:00  -  2 mph 1009.3mb 56f 60f
12:54 1 3 mph 1009.4mb 56f 60f
12:48 2 3 mph 1009.4mb 56f 60f
12:42  -  2 mph 1009.3mb 56f 60f
12:36 2 3 mph 1009.2mb 56f 61f
12:30 1 5 mph 1009mb 56f 60f
12:24 2 5 mph 1009.1mb 56f 60f
12:18  -  2 mph 1009.2mb 55f 62f
12:12 2 3 mph 1009.3mb 55f 62f
12:06 5 7 mph 1009.5mb 55f 61f
12:00 5 7 mph 1009.7mb 55f 61f
Mo 06/19 11:54 3 7 mph 1009.7mb 54f 62f
11:48 3 6 mph 1009.7mb 54f 62f
11:42 5 5 mph 1009.9mb 54f 61f
11:36 3 8 mph 1009.8mb 54f 60f
11:30 5 6 mph 1009.6mb 54f 60f
11:24 3 5 mph 1009.7mb 54f 60f
11:18 2 3 mph 1009.5mb 54f 59f
11:12 3 7 mph 1009.5mb 54f 58f
11:06 3 5 mph 1009.7mb 54f 61f
11:00 3 6 mph 1009.7mb 55f 61f
10:54 5 7 mph 1009.6mb 55f 61f
10:48 6 7 mph 1009.3mb 55f 59f
10:42 6 7 mph 1009.4mb 55f 60f
10:36 6 8 mph 1009.5mb 54f 64f
10:30 6 8 mph 1009.7mb 54f 64f
10:24 6 9 mph 1009.7mb 54f 62f
10:18 8 9 mph 1009.9mb 54f 62f
10:12 6 11 mph 1010mb 54f 60f
10:06 8 10 mph 1009.9mb 53f 59f
10:00 10 15 mph 1010mb 53f 59f
9:54 7 9 mph 1010mb 53f 60f
9:48 8 9 mph 1009.8mb 53f 58f
9:42 6 6 mph 1009.7mb 53f 60f
9:36 1 3 mph 1009.5mb 53f 60f
9:30 1 3 mph 1009.4mb 53f 63f
9:24 3 3 mph 1009.4mb 53f 63f
9:18 3 7 mph 1009.7mb 53f 62f
9:12 3 6 mph 1010.1mb 53f 62f
9:06  -  2 mph 1009.7mb 53f 62f
9:00  -  2 mph 1009.7mb 53f 63f
8:54 2 3 mph 1009.5mb 53f 64f
8:48 5 5 mph 1009.4mb 53f 62f
8:42 3 5 mph 1009.2mb 53f 63f
8:36 2 3 mph 1009.4mb 52f 62f
8:30 1 3 mph 1009.3mb 52f 63f
8:24 2 5 mph 1009.4mb 52f 62f
8:18 3 6 mph 1009.5mb 52f 64f
8:12 3 6 mph 1009.6mb 52f 65f
8:06 5 14 mph 1009.4mb 52f 61f
8:00 15 17 mph 1008.9mb 52f 61f
7:54 17 21 mph 1009mb 52f 62f
7:48 20 23 mph 1008.8mb 52f 62f
7:42 17 21 mph 1008.7mb 52f 61f
7:36 16 17 mph 1008.7mb 52f 62f
7:30 16 18 mph 1008.7mb 52f 62f
7:24 17 22 mph 1008.7mb 52f 62f
7:18 18 22 mph 1008.6mb 52f 63f
7:12 18 22 mph 1008.6mb 52f 62f
7:06 18 22 mph 1008.5mb 52f 62f
7:00 18 22 mph 1008.4mb 52f 62f
6:54 18 22 mph 1008.4mb 52f 62f
6:48 20 22 mph 1008.3mb 52f 63f
6:42 17 21 mph 1008.3mb 52f 63f
6:36 18 22 mph 1008.3mb 52f 65f
6:30 18 22 mph 1008.3mb 52f 62f
6:24 17 20 mph 1008.3mb 52f 64f
6:18 17 20 mph 1008.3mb 52f 64f
6:12 18 22 mph 1008.2mb 52f 64f
6:06 18 21 mph 1008.3mb 52f 66f
6:00 18 21 mph 1008.3mb 52f 66f
5:54 17 21 mph 1008.2mb 52f 66f
5:48 17 21 mph 1008.2mb 52f 66f
5:42 18 21 mph 1008.3mb 52f 66f
5:36 18 22 mph 1008.2mb 52f 65f
5:30 17 18 mph 1008.2mb 52f 64f
5:24 17 21 mph 1008.1mb 52f 64f
5:18 18 22 mph 1008.1mb 52f 64f
5:12 18 22 mph 1008mb 52f 64f
5:06 20 23 mph 1008mb 52f 64f
5:00 21 23 mph 1008.1mb 53f 64f
4:54 17 22 mph 1008mb 53f 63f
4:48 18 22 mph 1008.1mb 53f 63f
4:42 18 23 mph 1008.2mb 53f 62f
4:36 21 24 mph 1008.3mb 53f 63f
4:30 18 23 mph 1008.5mb 53f 62f
4:24 20 22 mph 1008.6mb 53f 62f
4:18 17 22 mph 1008.5mb 54f 62f
4:12 18 23 mph 1008.7mb 55f 63f
4:06 20 22 mph 1008.8mb 56f 64f
4:00 20 24 mph 1008.8mb 57f 64f
3:54 18 23 mph 1008.8mb 58f 65f
3:48 20 22 mph 1008.8mb 58f 65f
3:42 20 23 mph 1008.8mb 60f 65f
3:36 20 24 mph 1008.8mb 62f 66f
3:30 18 23 mph 1008.6mb 62f 65f
3:24 20 23 mph 1008.7mb 62f 65f
3:18 20 22 mph 1008.7mb 62f 65f
3:12 18 22 mph 1008.8mb 62f 65f
3:06 18 23 mph 1008.8mb 61f 65f
3:00 17 20 mph 1008.9mb 61f 64f
2:54 17 22 mph 1009mb 61f 65f
2:48 18 23 mph 1009.1mb 61f 65f
2:42 17 22 mph 1009.1mb 61f 65f
2:36 18 23 mph 1009.2mb 61f 65f
2:30 20 25 mph 1009.1mb 61f 65f
2:24 20 23 mph 1009mb 61f 64f
2:18 20 25 mph 1009.1mb 61f 65f
2:12 23 25 mph 1009.2mb 60f 65f
2:06 21 24 mph 1009mb 60f 65f
2:00 21 25 mph 1009mb 60f 66f
1:54 22 25 mph 1009.1mb 60f 66f
1:48 22 25 mph 1009.4mb 60f 66f
1:42 23 26 mph 1009.6mb 60f 65f
1:36 22 26 mph 1009.5mb 60f 65f
1:30 22 28 mph 1009.5mb 60f 65f
1:24 21 24 mph 1009.4mb 60f 64f
1:18 20 25 mph 1009.4mb 59f 64f
1:12 21 26 mph 1009.5mb 59f 64f
1:06 22 26 mph 1009.5mb 59f 65f
1:00 22 28 mph 1009.4mb 59f 64f
12:54 23 28 mph 1009.7mb 59f 65f
12:48 24 29 mph 1009.6mb 59f 66f
12:42 24 28 mph 1009.6mb 59f 65f
12:36 22 26 mph 1009.6mb 59f 65f
12:30 22 26 mph 1009.6mb 59f 66f
12:24 18 23 mph 1009.7mb 58f 65f
12:18 20 22 mph 1009.7mb 58f 65f
12:12 20 24 mph 1009.7mb 59f 65f
12:06 21 24 mph 1009.7mb 59f 64f
12:00 17 22 mph 1009.6mb 58f 64f
11:54 17 21 mph 1009.8mb 58f 65f
11:48 18 21 mph 1009.8mb 57f 64f
11:42 18 22 mph 1009.7mb 56f 65f
11:36 17 20 mph 1009.9mb 56f 64f
11:30 18 22 mph 1009.9mb 55f 64f
11:24 18 22 mph 1010mb 55f 64f
11:18 16 21 mph 1009.9mb 55f 63f
11:12 17 23 mph 1009.9mb 55f 62f
11:06 20 24 mph 1009.9mb 55f 62f
11:00 22 26 mph 1010mb 54f 62f
10:54 18 23 mph 1009.9mb 54f 62f
10:48 18 22 mph 1009.9mb 54f 62f
10:42 18 22 mph 1009.8mb 54f 63f
10:36 20 24 mph 1009.8mb 54f 63f
10:30 17 22 mph 1009.9mb 55f 63f
10:24 18 23 mph 1009.9mb 56f 63f
10:18 21 24 mph 1010mb 55f 63f
10:12 21 23 mph 1010mb 55f 63f
10:06 18 23 mph 1010mb 55f 62f
10:00 21 23 mph 1010mb 55f 62f
9:54 18 21 mph 1009.9mb 55f 62f
9:48 17 20 mph 1009.9mb 55f 61f
9:42 15 20 mph 1010mb 54f 61f
9:36 17 21 mph 1010mb 54f 61f
9:30 15 17 mph 1009.9mb 54f 61f
9:24 14 17 mph 1009.9mb 53f 61f
9:18 16 17 mph 1010.1mb 53f 61f
9:12 16 17 mph 1010mb 53f 61f
9:06 14 16 mph 1009.9mb 53f 61f
9:00 15 17 mph 1009.9mb 53f 61f
8:54 15 17 mph 1010mb 53f 61f
8:48 9 15 mph 1010mb 53f 60f
8:42 9 14 mph 1010.1mb 53f 60f
8:36 7 8 mph 1010.1mb 53f 60f
8:30 6 11 mph 1010.2mb 53f 60f
8:24 10 13 mph 1010mb 53f 60f
8:18 9 13 mph 1010mb 52f 60f
8:12 11 16 mph 1009.7mb 52f 59f
8:06 14 17 mph 1009.9mb 52f 60f
8:00 14 15 mph 1010mb 52f 60f
7:54 11 14 mph 1009.9mb 52f 60f
7:48 13 15 mph 1009.9mb 52f 59f
7:42 11 14 mph 1009.9mb 52f 60f
7:36 11 14 mph 1009.9mb 52f 60f
7:30 10 13 mph 1009.9mb 52f 60f
7:24 13 14 mph 1009.7mb 52f 60f
7:18 6 9 mph 1009.7mb 52f 61f
7:12 8 10 mph 1009.7mb 52f 60f
7:06 9 11 mph 1009.6mb 52f 60f
7:00 10 14 mph 1009.5mb 52f 59f
6:54 6 7 mph 1009.5mb 52f 60f
6:48 7 10 mph 1009.5mb 52f 60f
6:42 10 11 mph 1009.5mb 52f 60f
6:36 10 11 mph 1009.4mb 52f 59f
6:30 9 11 mph 1009.5mb 52f 58f
6:24 10 14 mph 1009.2mb 52f 59f
6:18 14 15 mph 1009.4mb 52f 59f
6:12 13 15 mph 1009.5mb 52f 58f
6:06 13 14 mph 1009.4mb 52f 58f
6:00 13 14 mph 1009.3mb 52f 59f
5:54 11 14 mph 1009.4mb 52f 59f
5:48 9 13 mph 1009.3mb 52f 58f
5:42 7 9 mph 1009.2mb 52f 58f
5:36 5 7 mph 1009.1mb 52f 62f
5:30 5 6 mph 1009.1mb 52f 61f
5:24 6 7 mph 1009mb 52f 60f
5:18 6 7 mph 1009mb 52f 60f
5:12 6 6 mph 1008.9mb 52f 60f
5:06 3 6 mph 1009mb 52f 60f
5:00 5 7 mph 1009mb 52f 60f
4:54 7 8 mph 1008.9mb 52f 59f
4:48 8 8 mph 1008.9mb 52f 60f
4:42 6 7 mph 1008.9mb 53f 60f
4:36 5 7 mph 1008.9mb 53f 62f
4:30 7 7 mph 1008.9mb 53f 60f
4:24 7 10 mph 1008.7mb 53f 60f
4:18 9 10 mph 1008.7mb 53f 59f
4:12 10 13 mph 1008.6mb 53f 59f
4:06 11 14 mph 1008.7mb 53f 59f
4:00 13 16 mph 1008.6mb 54f 59f
3:54 14 15 mph 1008.5mb 55f 59f
3:48 11 14 mph 1008.5mb 56f 59f
3:42 14 15 mph 1008.5mb 56f 60f
3:36 14 16 mph 1008.5mb 57f 59f
3:30 14 15 mph 1008.6mb 59f 59f
3:24 13 16 mph 1008.7mb 61f 60f
3:18 13 14 mph 1008.7mb 63f 60f
3:12 13 14 mph 1008.8mb 64f 60f
3:06 13 15 mph 1008.9mb 64f 60f
3:00 13 16 mph 1008.8mb 64f 60f
2:54 14 17 mph 1008.8mb 64f 60f
2:48 14 16 mph - - -
2:42 13 15 mph - - -
2:36 13 17 mph - - -
2:30 17 20 mph 1008.8mb 64f 60f
2:24 16 17 mph 1008.8mb 64f 61f
2:18 14 15 mph 1009mb 64f 61f
2:12 13 15 mph 1009.1mb 64f 60f
2:06 14 15 mph 1009mb 63f 61f
2:00 14 16 mph 1009.1mb 63f 60f
1:54 11 13 mph 1009.1mb 63f 61f
1:48 10 14 mph 1009mb 63f 61f
1:42 14 15 mph 1009mb 63f 60f
1:36 14 16 mph 1009mb 63f 60f
1:30 14 16 mph 1009mb 62f 61f
1:24 13 15 mph 1009mb 62f 61f
1:18 13 15 mph 1009.1mb 62f 61f
1:12 13 16 mph 1009.2mb 62f 61f
1:06 14 15 mph 1009.1mb 62f 60f
1:00 11 13 mph 1009.2mb 62f 60f
12:54 11 14 mph 1009.2mb 62f 60f
12:48 13 15 mph 1009.2mb 62f 61f
12:42 14 16 mph 1009.2mb 62f 61f
12:36 15 16 mph 1009.2mb 62f 60f
12:30 14 15 mph 1009.4mb 62f 61f
12:24 14 16 mph 1009.4mb 62f 61f
12:18 14 15 mph 1009.4mb 62f 62f
12:12 14 15 mph 1009.2mb 61f 62f
12:06 11 13 mph 1009.3mb 62f 63f
12:00 13 14 mph 1009.3mb 62f 63f
So 06/18 11:54 10 13 mph 1009.4mb 62f 63f
11:48 10 11 mph 1009.3mb 61f 63f
11:42 10 13 mph 1009.2mb 60f 63f
11:36 11 13 mph 1009.3mb 60f 63f
11:30 10 11 mph 1009.3mb 60f 63f
11:24 8 9 mph 1009.2mb 60f 63f
11:18 8 13 mph 1009.1mb 59f 63f
11:12 13 14 mph 1009mb 59f 64f
11:06 13 14 mph 1009mb 59f 64f
11:00 11 14 mph 1008.9mb 59f 65f
10:54 9 15 mph 1009mb 58f 66f
10:48 14 17 mph 1009.1mb 58f 66f
10:42 14 18 mph 1009mb 58f 64f
10:36 16 18 mph 1008.8mb 58f 64f
10:30 16 20 mph 1008.7mb 58f 64f
10:24 16 16 mph 1008.7mb 58f 64f
10:18 13 14 mph 1008.9mb 59f 65f
10:12 10 11 mph 1009mb 59f 64f
10:06 10 11 mph 1009mb 60f 66f
10:00 11 14 mph 1009.2mb 60f 66f
9:54 13 16 mph 1009.1mb 59f 66f
9:48 14 16 mph 1009.1mb 59f 68f
9:42 10 14 mph 1009.1mb 59f 67f
9:36 11 15 mph 1009.1mb 59f 65f
9:30 15 18 mph 1009mb 59f 64f
9:24 17 21 mph 1009.1mb 58f 65f
9:18 15 18 mph 1009.1mb 58f 66f
9:12 16 18 mph 1008.9mb 58f 65f
9:06 16 18 mph 1008.9mb 58f 65f
9:00 15 17 mph 1008.8mb 58f 65f
8:54 16 21 mph 1008.8mb 58f 65f
8:48 18 21 mph 1008.7mb 58f 65f
8:42 18 21 mph 1008.8mb 58f 65f
8:36 17 21 mph 1008.7mb 58f 65f
8:30 18 21 mph 1008.6mb 58f 65f
8:24 18 21 mph 1008.7mb 58f 66f
8:18 18 20 mph 1008.5mb 57f 67f
8:12 17 18 mph 1008.3mb 57f 67f
8:06 16 20 mph 1008.3mb 57f 65f
8:00 17 21 mph 1008.2mb 57f 65f
7:54 16 20 mph 1008.1mb 57f 65f
7:48 18 22 mph 1008.1mb 57f 65f
7:42 21 24 mph 1008.1mb 56f 66f
7:36 20 23 mph 1008.2mb 56f 67f
7:30 21 22 mph 1008.2mb 55f 67f
7:24 17 21 mph 1008.2mb 55f 67f
7:18 17 20 mph 1008.2mb 56f 67f
7:12 17 20 mph 1008.3mb 56f 66f
7:06 17 21 mph 1008.3mb 56f 66f
7:00 17 21 mph 1008.1mb 56f 66f
6:54 18 22 mph 1008.1mb 56f 66f
6:48 20 23 mph 1008.2mb 56f 66f
6:42 21 24 mph 1008.2mb 56f 67f
6:36 21 23 mph 1008.2mb 56f 66f
6:30 20 22 mph 1008.3mb 56f 66f
6:24 18 21 mph 1008.2mb 56f 66f
6:18 17 22 mph 1008.2mb 56f 66f
6:12 21 24 mph 1008.2mb 56f 67f
6:06 18 23 mph 1008.1mb 56f 66f
6:00 20 23 mph 1008.1mb 56f 66f
5:54 22 25 mph 1008.1mb 56f 66f
5:48 21 24 mph 1008.1mb 57f 66f
5:42 20 25 mph 1008.3mb 57f 66f
5:36 22 24 mph 1008.3mb 57f 66f
5:30 22 24 mph 1008.3mb 57f 66f
5:24 20 23 mph 1008.3mb 57f 67f
5:18 22 25 mph 1008.3mb 57f 67f
5:12 21 25 mph 1008.4mb 57f 66f
5:06 21 23 mph 1008.5mb 57f 67f
5:00 22 25 mph 1008.6mb 57f 67f
4:54 18 24 mph 1008.6mb 57f 66f
4:48 21 24 mph 1008.6mb 57f 66f
4:42 22 25 mph 1008.7mb 56f 66f
4:36 23 28 mph 1008.7mb 56f 67f
4:30 21 25 mph 1008.7mb 56f 66f
4:24 21 24 mph 1008.8mb 56f 66f
4:18 18 24 mph 1008.9mb 56f 67f
4:12 21 23 mph 1009.1mb 56f 67f
4:06 20 23 mph 1009.2mb 57f 67f
4:00 18 23 mph 1009.1mb 57f 67f
3:54 21 23 mph 1009.1mb 57f 67f
3:48 18 24 mph 1009.3mb 58f 67f
3:42 21 24 mph 1009.4mb 58f 67f
3:36 21 24 mph 1009.5mb 59f 67f
3:30 20 23 mph 1009.5mb 59f 68f
3:24 20 22 mph 1009.6mb 60f 69f
3:18 18 23 mph 1009.6mb 61f 69f
3:12 21 24 mph 1009.6mb 61f 69f
3:06 18 24 mph 1009.7mb 61f 68f
3:00 20 23 mph 1009.8mb 61f 67f
2:54 15 24 mph 1009.8mb 62f 67f
2:48 16 22 mph 1009.8mb 62f 67f
2:42 16 20 mph 1009.7mb 62f 67f
2:36 16 21 mph 1009.8mb 62f 68f
2:30 18 21 mph 1009.8mb 62f 68f
2:24 17 20 mph 1009.9mb 61f 68f
2:18 17 21 mph 1009.9mb 61f 68f
2:12 17 22 mph 1009.9mb 61f 67f
2:06 18 21 mph 1010mb 61f 67f
2:00 16 20 mph 1010mb 61f 67f
1:54 18 21 mph 1010.1mb 61f 67f
1:48 17 21 mph 1010.2mb 61f 66f
1:42 17 21 mph 1010.3mb 61f 66f
1:36 16 22 mph 1010.4mb 61f 66f
1:30 17 22 mph 1010.6mb 61f 66f
1:24 15 21 mph 1010.6mb 61f 65f
1:18 15 18 mph 1010.7mb 61f 65f
1:12 15 20 mph 1010.8mb 61f 65f
1:06 17 21 mph 1010.8mb 61f 65f
1:00 17 21 mph 1010.9mb 61f 65f
12:54 16 21 mph 1011mb 61f 64f
12:48 17 21 mph 1011mb 61f 64f
12:42 17 22 mph 1011mb 61f 64f
12:36 16 18 mph 1011.1mb 61f 64f
12:30 16 20 mph 1011mb 61f 64f
12:24 15 17 mph 1011mb 61f 64f
12:18 13 15 mph 1011.1mb 61f 64f